Simultaneous Nadir Overpasses (SNOs) Predictions

Prediction of SNOs between AURA and NPP Satellite Orbit:

Table of predicted SNOs for the next 14.0 days since TLE Epoch: 1/11/2016
Index Date (AURA) Time (AURA) Lat,Lon (AURA) SZA (AURA ) Date (NPP) Time (NPP) Lat,Lon (NPP) SZA (NPP ) Distance(km) Time Diff (sec)
1 01/12/2016 02:02:40 79.24, 44.50 114.49 01/12/2016 02:02:14 79.24, 44.48 114.51 0.37 26
2 01/12/2016 02:52:00 -79.52,-146.02 65.91 01/12/2016 02:52:51 -79.52,-146.04 65.94 0.42 51
3 01/14/2016 18:19:08 79.34, 161.01 113.96 01/14/2016 18:19:03 79.34, 160.99 113.97 0.62 5
4 01/14/2016 19:08:28 -79.62, -29.46 66.44 01/14/2016 19:09:40 -79.61, -29.49 66.49 0.70 72
5 01/17/2016 09:46:18 -79.16, 108.10 66.24 01/17/2016 09:45:16 -79.17, 108.19 66.21 2.20 62
6 01/17/2016 10:35:37 79.43, -82.53 113.39 01/17/2016 10:35:53 79.43, -82.52 113.37 0.51 16
7 01/20/2016 02:02:49 -79.16,-136.02 66.74 01/20/2016 02:02:09 -79.16,-136.11 66.69 1.91 40
8 01/20/2016 02:52:04 79.58, 34.39 112.68 01/20/2016 02:52:41 79.59, 34.52 112.62 2.86 37
9 01/22/2016 18:19:15 -79.35, -18.96 67.54 01/22/2016 18:18:56 -79.36, -18.89 67.54 1.68 19




NCC Satellite Simultaneous Nadir Overpasses (SNOs) Prediction Service
